Tracking 31027 objects as of 19-Jul-2025
HD Live streaming from Space Station
objects crossing your sky now

STARLINK-5925

Track STARLINK-5925 now!
10-day predictions
STARLINK-5925 is classified as:


NORAD ID: 55945
Int'l Code: 2023-037AH
Perigee: 576.4 km
Apogee: 582.0 km
Inclination: 70.0 °
Period: 96.1 minutes
Semi major axis: 6950 km
RCS: Unknown
Launch date: March 17, 2023
Source: United States (US)
Launch site: AIR FORCE WESTERN TEST RANGE (AFWTR)
Your satellite tracking list
STARLINK-3349
Track 1 satellite(s)




NASA's NSSDC Master Catalog

Two Line Element Set (TLE):
1 55945U 23037AH  25199.57219119  .00001622  00000-0  14377-3 0  9990
2 55945  69.9999 154.6683 0004022 261.4953  98.5750 14.98316836128916
Source of the keplerian elements: AFSPC